Temp
-4 -4 -4 -4 -4 -4 -4 -4 -4 -5 -5 -4 -4 -4 -4 -4 -4 -4 -4 -3 -3 -3 -3 -3 -3 -4 -4 -4 -4 -5 -5 -5 -5 -5 -5 -6 -6 -6 -6 -6 -6 -6 -6
-4 -4 -4 -4 -4 -4 -5 -4 -4 -4 -4 -4 -4 -4 -4 -4 -4 -4 -4 -4 -3 -3 -3 -3 -3 -4 -4 -4 -4 -5 -5 -5 -5 -5 -5 -6 -6 -6 -6 -6 -6 -6 -6
-4 -4 -4 -4 -4 -4 -4 -4 -4 -4 -5 -5 -4 -4 -4 -4 -4 -4 -4 -3 -3 -3 -4 -3 -4 -4 -4 -4 -4 -5 -5 -5 -5 -5 -6 -6 -6 -6 -6 -6 -6 -6 -6
-4 -4 -4 -4 -3 -4 -4 -4 -4 -4 -5 -5 -4 -4 -4 -4 -4 -4 -4 -4 -3 -4 -4 -4 -4 -4 -4 -5 -5 -5 -5 -5 -5 -5 -5 -6 -6 -6 -6 -6 -6 -6 -6
-4 -5 -4 -5 -4 -4 -4 -4 -4 -4 -4 -5 -4 -4 -4 -4 -4 -4 -3 -4 -4 -4 -4 -4 -4 -4 -4 -4 -5 -5 -5 -5 -5 -6 -6 -6 -6 -6 -6 -6 -6 -6 -7
-4 -4 -4 -4 -5 -4 -4 -4 -4 -4 -4 -5 -5 -4 -4 -4 -4 -4 -4 -4 -4 -4 -4 -4 -4 -4 -4 -4 -5 -5 -5 -5 -5 -5 -6 -5 -5 -6 -6 -6 -6 -6 -6
-4 -4 -5 -4 -5 -5 -5 -4 -4 -4 -4 -4 -4 -4 -4 -4 -4 -4 -4 -4 -4 -4 -4 -4 -4 -4 -4 -4 -5 -5 -5 -5 -5 -6 -6 -6 -6 -6 -6 -6 -7 -7 -6
-4 -4 -5 -5 -5 -5 -4 -4 -4 -4 -4 -4 -5 -4 -4 -4 -4 -4 -4 -4 -4 -4 -4 -4 -4 -4 -4 -5 -5 -4 -4 -5 -5 -6 -6 -5 -6 -6 -6 -6 -6 -6 -6
-5 -5 -4 -5 -4 -4 -5 -5 -4 -4 -4 -4 -4 -4 -4 -4 -4 -4 -4 -4 -4 -4 -4 -4 -4 -4 -4 -5 -5 -4 -5 -5 -5 -5 -5 -5 -6 -6 -6 -6 -6 -6 -7
-5 -5 -4 -5 -4 -4 -4 -5 -5 -4 -4 -4 -4 -4 -4 -4 -4 -4 -4 -4 -3 -4 -4 -4 -4 -4 -4 -4 -5 -4 -4 -5 -5 -5 -5 -5 -5 -5 -5 -6 -6 -6 -6
-5 -6 -5 -5 -5 -5 -5 -5 -5 -5 -4 -4 -4 -4 -4 -4 -4 -4 -4 -4 -3 -3 -4 -4 -4 -4 -4 -4 -4 -5 -5 -5 -5 -5 -5 -5 -5 -5 -5 -5 -5 -6 -6
-5 -5 -5 -4 -5 -5 -5 -5 -5 -5 -5 -5 -4 -5 -4 -4 -4 -4 -4 -3 -4 -3 -4 -4 -4 -4 -4 -4 -4 -4 -4 -5 -5 -5 -5 -5 -5 -5 -5 -5 -5 -5 -5
-5 -5 -5 -5 -5 -5 -5 -5 -5 -5 -5 -5 -4 -5 -5 -4 -4 -4 -4 -4 -4 -4 -4 -4 -4 -4 -4 -4 -4 -4 -4 -4 -4 -4 -4 -4 -5 -5 -5 -5 -5 -5 -6
-4 -5 -5 -5 -5 -5 -4 -5 -5 -5 -5 -5 -4 -5 -4 -4 -4 -4 -4 -4 -4 -4 -4 -4 -4 -4 -4 -4 -4 -4 -4 -4 -4 -5 -5 -5 -5 -5 -6 -6 -6 -6 -6
-4 -4 -5 -5 -5 -5 -4 -5 -5 -5 -5 -5 -5 -5 -5 -4 -4 -4 -4 -4 -4 -4 -4 -4 -4 -4 -3 -4 -4 -3 -3 -4 -4 -4 -4 -4 -4 -6 -6 -6 -6 -6 -6
-4 -5 -5 -5 -5 -5 -5 -4 -5 -5 -5 -5 -5 -5 -5 -4 -4 -5 -4 -4 -4 -4 -4 -4 -4 -4 -4 -4 -3 -4 -4 -4 -4 -5 -5 -5 -5 -5 -5 -5 -5 -6 -6
-4 -5 -5 -5 -5 -5 -5 -5 -5 -5 -5 -5 -5 -5 -4 -4 -4 -5 -4 -4 -4 -4 -4 -4 -4 -4 -4 -4 -4 -4 -4 -4 -5 -5 -5 -5 -6 -5 -6 -6 -6 -7 -6
-5 -5 -5 -5 -5 -5 -5 -5 -5 -4 -5 -5 -5 -5 -4 -4 -4 -4 -5 -4 -4 -4 -4 -4 -4 -4 -4 -4 -4 -5 -5 -5 -5 -6 -5 -5 -5 -5 -6 -6 -7 -7 -8
-5 -5 -5 -5 -5 -5 -5 -5 -5 -5 -5 -5 -5 -5 -5 -5 -5 -4 -5 -5 -5 -4 -4 -4 -4 -4 -4 -4 -5 -5 -5 -6 -5 -5 -5 -5 -5 -6 -7 -6 -6 -7 -7
-5 -5 -5 -5 -5 -5 -5 -5 -5 -5 -5 -5 -5 -5 -5 -5 -4 -4 -4 -5 -5 -5 -4 -5 -4 -4 -5 -5 -5 -4 -4 -4 -5 -5 -4 -4 -5 -6 -6 -6 -6 -6 -7
-5 -5 -5 -5 -5 -5 -5 -5 -5 -5 -5 -5 -5 -5 -5 -4 -4 -5 -4 -5 -5 -5 -4 -5 -4 -4 -5 -5 -5 -5 -4 -5 -6 -4 -5 -5 -5 -5 -6 -6 -6 -6 -6
-6 -6 -5 -5 -5 -5 -5 -5 -5 -5 -5 -5 -5 -4 -4 -4 -4 -5 -5 -5 -5 -5 -5 -5 -4 -4 -5 -5 -5 -5 -4 -5 -5 -5 -5 -5 -6 -6 -6 -6 -5 -6 -6
-6 -6 -6 -6 -5 -5 -5 -5 -5 -5 -5 -5 -5 -4 -4 -4 -5 -5 -5 -5 -5 -5 -5 -5 -4 -4 -4 -4 -4 -5 -6 -5 -5 -6 -5 -5 -5 -6 -6 -6 -6 -6 -6
-5 -5 -5 -5 -5 -5 -5 -5 -5 -5 -5 -5 -5 -5 -4 -5 -5 -4 -5 -5 -5 -5 -5 -5 -4 -4 -4 -4 -5 -5 -5 -5 -5 -5 -5 -5 -6 -6 -5 -6 -6 -6 -6
-5 -5 -5 -5 -5 -5 -5 -5 -5 -5 -5 -5 -5 -5 -5 -5 -5 -5 -5 -5 -5 -5 -5 -4 -4 -4 -4 -4 -5 -4 -4 -4 -5 -4 -5 -5 -5 -5 -5 -6 -6 -6 -6
-6 -5 -5 -5 -5 -5 -5 -5 -5 -6 -6 -5 -5 -5 -5 -5 -5 -5 -6 -5 -5 -5 -4 -4 -4 -4 -4 -4 -4 -4 -4 -4 -4 -4 -4 -5 -5 -5 -5 -5 -5 -6 -6
Height
5917 5918 5918 5920 5920 5919 5918 5919 5919 5919 5920 5921 5922 5922 5922 5923 5924 5925 5925 5926 5926 5928 5929 5930 5930 5930 5930 5931 5930 5931 5931 5930 5930 5929 5928 5928 5927 5926 5925 5925 5924 5925 5926
5919 5919 5919 5922 5923 5923 5922 5921 5922 5922 5924 5925 5925 5924 5925 5926 5927 5928 5928 5928 5929 5930 5930 5931 5932 5932 5933 5933 5932 5933 5933 5932 5931 5931 5930 5930 5929 5928 5927 5927 5926 5926 5926
5921 5922 5921 5923 5924 5926 5926 5925 5925 5925 5925 5926 5928 5929 5927 5928 5929 5930 5930 5931 5932 5932 5933 5933 5934 5934 5934 5934 5934 5935 5934 5934 5934 5933 5932 5931 5931 5930 5929 5928 5927 5927 5926
5922 5923 5923 5924 5925 5927 5927 5927 5928 5928 5928 5928 5929 5930 5930 5930 5930 5932 5932 5933 5934 5934 5935 5935 5935 5936 5936 5936 5936 5936 5936 5936 5935 5935 5934 5933 5933 5932 5931 5930 5928 5927 5927
5923 5923 5924 5925 5926 5929 5930 5930 5930 5931 5931 5931 5931 5931 5933 5933 5933 5934 5935 5935 5936 5936 5936 5936 5937 5937 5937 5937 5938 5938 5937 5936 5936 5936 5935 5934 5934 5933 5932 5930 5928 5927 5927
5924 5924 5923 5926 5928 5929 5931 5932 5932 5933 5933 5932 5932 5934 5935 5935 5935 5935 5936 5936 5936 5937 5938 5938 5939 5939 5939 5939 5939 5938 5936 5937 5936 5935 5935 5936 5935 5933 5932 5931 5929 5928 5927
5925 5925 5927 5927 5929 5928 5930 5932 5933 5935 5936 5937 5934 5935 5936 5937 5938 5938 5938 5938 5938 5940 5941 5941 5941 5941 5941 5941 5940 5939 5942 5940 5938 5937 5934 5936 5934 5934 5932 5930 5929 5927 5926
5926 5926 5927 5928 5928 5928 5928 5932 5933 5935 5936 5938 5938 5936 5937 5938 5939 5939 5940 5940 5940 5941 5942 5942 5943 5944 5943 5943 5941 5942 5943 5941 5942 5941 5938 5937 5934 5934 5934 5931 5929 5927 5925
5925 5927 5927 5927 5928 5928 5928 5931 5932 5935 5938 5937 5939 5938 5939 5939 5940 5942 5942 5943 5943 5943 5944 5945 5945 5945 5945 5945 5944 5944 5945 5942 5943 5940 5934 5937 5936 5935 5934 5931 5929 5927 5925
5925 5927 5927 5927 5924 5921 5926 5929 5932 5935 5937 5939 5940 5939 5940 5941 5942 5944 5944 5944 5945 5945 5945 5946 5947 5947 5947 5948 5947 5945 5945 5944 5941 5940 5939 5938 5936 5935 5934 5931 5929 5926 5923
5924 5926 5927 5926 5924 5923 5927 5930 5932 5934 5936 5938 5941 5941 5940 5942 5943 5945 5946 5946 5946 5947 5947 5948 5948 5949 5949 5949 5949 5948 5946 5944 5942 5941 5938 5939 5938 5936 5934 5931 5929 5925 5921
5923 5925 5927 5926 5926 5926 5928 5930 5934 5934 5937 5938 5940 5943 5940 5944 5945 5946 5947 5948 5948 5949 5949 5949 5950 5950 5950 5949 5949 5948 5947 5945 5944 5942 5941 5940 5938 5935 5933 5930 5927 5924 5920
5923 5923 5927 5927 5927 5928 5929 5929 5929 5931 5935 5938 5940 5943 5941 5944 5946 5947 5948 5948 5949 5950 5950 5950 5951 5951 5952 5950 5950 5949 5947 5945 5944 5941 5940 5938 5937 5934 5932 5929 5926 5923 5918
5922 5923 5924 5926 5927 5928 5928 5929 5931 5930 5931 5937 5939 5941 5942 5944 5947 5948 5949 5949 5950 5950 5950 5950 5952 5952 5951 5951 5950 5949 5947 5945 5944 5942 5938 5938 5936 5933 5930 5925 5923 5922 5919
5920 5922 5922 5923 5924 5924 5926 5929 5931 5930 5933 5936 5939 5941 5944 5947 5948 5948 5949 5950 5950 5950 5951 5952 5951 5952 5952 5952 5950 5948 5947 5946 5943 5942 5940 5939 5929 5930 5925 5923 5920 5917 5916
5918 5918 5920 5922 5924 5924 5924 5927 5930 5930 5932 5934 5937 5940 5945 5947 5948 5949 5949 5949 5950 5950 5951 5952 5952 5952 5952 5952 5950 5948 5946 5945 5943 5934 5931 5931 5931 5925 5926 5923 5921 5918 5911
5919 5917 5917 5919 5920 5922 5923 5925 5928 5930 5930 5932 5936 5940 5945 5947 5948 5949 5949 5950 5949 5950 5952 5953 5952 5952 5951 5951 5950 5948 5942 5942 5933 5937 5929 5930 5926 5922 5923 5918 5917 5912 5905
5916 5917 5916 5916 5917 5919 5921 5923 5925 5928 5930 5933 5937 5940 5944 5946 5948 5949 5949 5949 5950 5950 5952 5952 5952 5952 5951 5949 5949 5946 5941 5927 5940 5932 5924 5923 5925 5922 5920 5919 5913 5906 5902
5916 5915 5915 5915 5915 5916 5918 5920 5922 5926 5930 5933 5935 5937 5942 5944 5947 5948 5949 5949 5949 5950 5951 5952 5953 5952 5950 5949 5947 5945 5939 5938 5935 5930 5929 5929 5926 5922 5919 5916 5909 5902 5906
5913 5913 5914 5913 5913 5913 5915 5918 5920 5924 5928 5931 5934 5937 5939 5943 5945 5947 5949 5949 5949 5950 5951 5952 5952 5951 5949 5948 5946 5943 5943 5922 5940 5936 5935 5932 5927 5924 5921 5919 5916 5907 5908
5908 5910 5911 5911 5911 5912 5913 5915 5918 5921 5926 5929 5932 5934 5937 5941 5944 5946 5948 5949 5948 5950 5951 5951 5951 5950 5948 5946 5944 5940 5941 5938 5928 5935 5934 5932 5927 5924 5923 5920 5920 5913 5910
5906 5907 5908 5908 5908 5909 5911 5913 5916 5919 5923 5927 5930 5933 5936 5939 5942 5944 5946 5947 5948 5950 5950 5950 5949 5948 5947 5944 5943 5939 5938 5938 5933 5934 5933 5925 5922 5925 5922 5919 5920 5914 5911
5905 5906 5906 5907 5907 5908 5909 5912 5915 5918 5920 5923 5926 5930 5933 5935 5938 5942 5943 5945 5947 5949 5949 5949 5948 5947 5945 5944 5943 5941 5938 5936 5936 5932 5930 5928 5927 5925 5922 5921 5918 5915 5912
5904 5904 5905 5905 5905 5905 5907 5910 5913 5916 5919 5922 5925 5927 5928 5931 5936 5939 5940 5945 5945 5947 5948 5948 5947 5946 5944 5944 5943 5941 5940 5936 5933 5932 5930 5931 5929 5924 5923 5922 5920 5917 5915
5904 5903 5904 5903 5903 5904 5905 5908 5911 5914 5917 5920 5922 5924 5927 5930 5933 5936 5940 5943 5945 5946 5947 5947 5946 5945 5944 5944 5943 5941 5939 5938 5936 5933 5933 5931 5928 5925 5924 5921 5921 5919 5916
5901 5902 5902 5902 5901 5902 5903 5906 5909 5912 5914 5918 5919 5923 5926 5928 5932 5935 5939 5942 5943 5945 5946 5946 5946 5945 5944 5944 5943 5941 5939 5938 5937 5934 5932 5930 5927 5926 5925 5922 5920 5918 5915
Wind_Speed
19 18 15 13 12 13 16 16 18 17 17 17 17 18 17 16 15 16 17 16 16 15 14 13 13 12 13 13 12 13 13 13 13 12 12 11 16 9 10 10 5 1 4
17 18 14 12 10 10 12 15 16 17 16 16 18 19 19 17 16 16 17 17 16 15 14 13 12 12 12 12 11 10 11 12 12 11 12 14 14 14 10 12 8 4 3
13 14 13 12 10 10 11 13 15 16 17 18 19 18 19 18 17 16 16 17 17 16 14 13 13 13 13 12 11 12 12 12 11 11 10 10 11 12 10 9 8 5 3
11 13 13 13 11 10 11 13 14 15 16 18 18 18 17 19 18 17 16 15 15 15 15 15 13 12 12 11 11 12 12 12 11 11 8 8 9 8 8 8 8 7 6
10 13 15 13 12 11 10 12 14 14 14 15 15 16 15 17 18 17 16 15 14 14 14 14 12 11 10 9 10 10 11 10 10 9 9 10 9 8 9 8 10 10 9
9 10 12 13 11 13 12 12 14 14 14 15 16 15 16 16 16 17 16 14 14 12 12 11 10 10 9 9 10 9 7 9 10 9 12 11 12 13 12 12 11 11 12
8 7 6 13 12 15 17 16 15 13 13 11 14 14 14 14 14 14 14 13 12 10 10 10 9 9 10 11 9 9 13 11 9 13 11 10 13 13 13 13 12 12 12
9 8 4 9 18 14 17 17 17 14 13 11 10 11 11 11 11 11 11 10 10 10 10 9 9 10 10 11 9 10 10 9 12 11 10 13 14 14 14 15 14 14 13
10 9 7 9 17 12 17 19 17 16 14 13 10 11 11 12 11 10 10 9 9 9 9 10 9 10 9 7 7 8 9 12 12 12 12 16 15 14 16 15 16 17 17
13 9 10 11 26 23 23 21 18 17 16 13 12 12 11 11 10 8 9 9 9 11 11 10 9 9 8 8 7 8 9 10 11 13 11 10 12 13 15 16 18 19 19
13 9 10 14 13 5 17 20 22 19 18 15 13 12 12 10 9 8 6 7 6 6 7 7 8 8 8 8 8 8 9 10 12 12 14 13 13 14 15 16 18 22 27
9 6 6 13 13 10 11 18 19 20 17 15 14 12 12 9 8 7 6 4 5 5 3 3 4 5 5 7 6 6 6 8 9 9 12 13 13 18 18 19 20 22 26
7 8 4 7 10 11 11 16 16 21 19 16 15 14 12 10 9 8 6 5 5 4 3 1 1 4 6 6 7 9 8 11 12 15 14 18 17 17 20 21 22 23 26
8 8 7 6 9 10 9 5 2 9 21 19 17 14 13 12 9 8 8 6 6 4 3 2 1 4 5 7 8 10 11 14 17 16 19 20 21 22 22 22 20 22 24
9 10 9 9 8 11 11 8 7 9 17 19 18 19 14 11 10 9 8 6 4 3 2 0 2 4 6 7 9 12 15 17 19 17 18 21 19 23 21 21 19 20 24
11 11 11 11 9 10 14 12 12 11 15 14 20 21 15 14 12 9 7 6 3 2 1 1 1 3 5 7 10 13 16 18 18 19 16 16 22 27 27 27 21 24 21
14 12 12 12 12 10 12 15 11 10 9 15 12 22 17 14 14 10 8 6 4 3 1 1 2 4 7 10 12 15 15 14 21 21 17 16 21 25 25 15 26 19 19
13 10 11 12 14 12 12 14 15 8 10 9 14 18 18 16 12 11 10 6 4 4 3 3 3 6 8 11 15 18 21 14 19 19 30 19 26 24 17 14 18 20 16
6 7 9 11 13 15 14 13 16 14 10 12 11 20 21 18 15 14 10 7 5 4 4 4 4 7 10 13 16 17 21 25 27 23 26 24 13 12 15 19 21 23 23
5 4 4 9 13 15 14 14 15 16 17 14 8 22 23 20 18 16 12 9 5 5 5 5 7 9 12 14 17 19 17 9 21 20 12 12 11 12 14 15 18 19 25
6 3 6 9 13 12 12 13 14 18 18 15 11 9 18 20 18 17 14 12 8 5 6 7 10 13 16 18 20 19 17 12 2 14 12 16 15 15 16 16 12 20 21
7 6 7 8 9 11 12 12 14 15 19 17 14 11 15 20 22 22 17 14 9 7 7 8 11 15 16 16 13 13 13 10 13 12 13 18 18 18 16 17 15 19 20
7 8 9 9 8 10 11 13 16 18 16 13 15 15 18 19 18 19 18 15 8 8 10 10 12 14 10 12 12 11 13 14 12 14 17 15 17 15 14 15 16 17 19
9 9 10 11 9 9 11 13 15 15 15 14 9 10 14 19 19 14 16 12 8 9 8 8 11 7 10 11 13 13 12 13 13 12 12 6 14 15 15 16 15 17 18
7 9 10 10 9 7 12 14 15 15 14 16 13 12 20 19 17 16 14 11 6 7 5 8 7 9 10 11 11 11 11 11 10 12 11 10 11 14 14 14 14 14 16
7 8 8 9 8 10 14 16 16 14 13 17 13 14 22 21 19 17 14 9 8 4 5 5 6 8 9 7 7 6 7 7 9 12 13 12 13 13 14 14 14 15 16
Wind_Direction
128 128 126 116 109 111 114 119 115 111 112 112 109 104 105 106 104 101 101 101 100 97 94 87 83 80 75 71 69 59 58 58 56 48 42 31 23 32 35 30 44 54 5
135 132 137 127 113 109 109 119 120 114 109 109 109 104 102 102 101 98 99 99 98 96 95 92 88 81 76 71 67 57 49 53 50 47 35 32 33 40 37 40 47 54 5
144 140 147 141 131 123 117 122 126 120 118 117 112 104 103 104 103 99 96 91 90 89 85 81 75 73 74 68 61 55 48 48 46 43 40 33 26 33 40 33 26 19 332
162 159 158 156 151 143 133 127 128 123 123 121 117 110 105 105 101 97 94 91 91 87 83 81 80 74 69 62 59 55 48 47 44 37 34 33 24 25 21 15 7 356 339
182 180 171 166 168 157 145 135 132 130 127 125 120 114 109 105 104 101 100 99 95 93 93 88 88 82 77 66 53 46 42 42 36 41 17 20 10 8 9 357 346 347 344
206 220 180 177 186 170 169 148 137 137 131 129 121 118 113 113 115 113 111 109 107 104 98 95 86 79 72 60 52 44 44 45 36 40 32 9 21 9 5 353 343 337 327
215 228 201 203 198 203 170 159 145 143 137 135 128 123 121 120 119 119 117 117 113 105 99 86 76 75 71 64 56 50 44 39 36 33 26 10 18 12 1 355 350 342 329
213 224 228 236 220 216 177 161 153 158 153 147 147 136 135 133 128 131 129 122 116 109 103 87 83 78 82 74 69 54 45 27 30 27 38 17 19 5 351 349 347 342 339
233 224 234 239 236 233 221 167 161 160 166 156 164 142 140 136 134 131 122 123 124 116 102 94 97 92 92 74 61 53 39 25 22 24 52 14 12 1 351 345 338 335 329
236 230 238 259 242 241 208 171 165 170 171 168 169 152 147 141 138 134 130 123 113 110 102 98 96 86 79 67 51 22 32 24 17 15 17 4 355 349 340 333 331 328 320
241 233 230 251 298 359 208 177 170 180 171 172 176 167 158 156 154 150 152 139 121 109 114 110 90 71 55 42 34 27 16 8 12 348 354 348 336 329 331 328 330 325 336
248 254 230 253 288 303 286 278 223 174 178 178 178 179 159 163 158 155 154 135 112 109 113 128 89 60 33 17 5 7 1 349 356 338 355 335 339 339 334 334 334 335 339
252 267 244 253 267 277 294 295 218 187 182 183 183 182 167 172 158 157 152 130 118 114 118 99 301 347 359 346 347 347 349 341 350 353 357 335 344 326 334 335 332 335 335
258 260 269 261 277 271 274 334 277 213 179 188 186 191 180 172 168 152 140 131 117 101 89 88 314 338 339 332 345 344 344 346 345 345 340 338 336 337 330 329 327 330 333
269 264 269 270 273 284 265 258 221 235 195 196 195 198 191 185 177 168 158 146 139 155 144 340 351 325 329 343 335 342 342 339 341 344 339 346 341 326 320 322 327 332 333
290 286 269 265 261 272 263 243 240 258 221 228 218 202 194 194 180 182 166 163 175 173 195 253 321 336 345 346 338 340 340 339 337 321 326 338 327 320 326 324 329 328 337
280 281 282 273 271 277 264 249 242 249 261 213 188 175 194 196 191 188 183 183 192 218 204 313 311 341 348 343 341 336 321 342 306 328 300 332 334 326 332 317 331 325 331
267 269 278 278 273 278 273 252 240 252 231 238 221 190 195 200 197 198 199 212 255 238 252 283 315 349 331 341 337 330 323 290 325 329 315 336 328 323 336 348 332 321 324
230 266 275 278 273 275 277 254 236 221 209 238 236 216 215 207 203 210 214 228 252 260 245 268 317 323 332 338 331 327 321 322 342 325 329 322 341 27 346 344 344 337 343
261 248 280 282 270 270 262 241 235 221 220 221 230 213 222 215 212 220 233 241 245 249 248 271 314 329 330 328 327 321 330 346 327 332 4 360 2 353 355 355 353 341 337
275 268 292 284 261 260 243 232 230 216 224 225 223 238 203 212 221 223 237 243 236 249 267 291 317 327 330 329 319 323 332 316 46 0 360 7 5 9 8 353 345 338 347
267 287 312 299 259 256 243 230 220 220 225 229 225 226 233 225 241 232 228 238 235 252 271 305 317 325 327 323 339 342 3 353 349 351 6 342 12 10 6 353 7 347 352
269 282 293 291 269 258 247 233 220 218 229 244 218 228 234 232 204 212 221 231 242 253 274 302 318 323 335 351 354 349 348 348 355 344 359 3 1 3 354 358 360 2 7
268 284 285 280 270 249 240 234 226 226 226 221 208 228 200 181 197 205 210 226 249 258 276 299 316 332 336 346 349 349 357 353 353 10 4 13 6 349 358 13 7 8 5
271 285 294 281 257 250 233 231 224 225 221 207 214 209 193 191 195 206 212 232 240 242 282 302 306 329 334 341 349 357 3 5 359 2 21 19 16 357 6 13 6 4 358
259 279 297 287 262 243 237 229 230 222 216 205 219 219 200 198 209 213 224 221 215 229 287 292 317 327 346 356 6 13 7 1 3 359 11 15 8 359 0 3 355 353 347